This is the latest recevied weather packets stored in our database for station/object JA0ZJX-13. If no packets are shown the sender has not sent any weather packets the latest 10 day(s).
| Time | Temp. | Humidity | Pressure | Rain* | Wind** | Luminosity | Snow |
|---|---|---|---|---|---|---|---|
| 1777859007 | 21.11° C | 56% | 1001 hPa | 0 mm | - | 411 W/m² | - |
| 1777858416 | 20.56° C | 57% | 1000.9 hPa | 0 mm | - | 512 W/m² | - |
| 1777857810 | 20.56° C | 59% | 1001.1 hPa | 0 mm | - | 415 W/m² | - |
| 1777857220 | 20.56° C | 58% | 1001.2 hPa | 0 mm | - | 385 W/m² | - |
| 1777856609 | 20.56° C | 60% | 1001.1 hPa | 0 mm | - | 283 W/m² | - |
| 1777856017 | 20.56° C | 61% | 1001.1 hPa | 0 mm | - | 1086 W/m² | - |
| 1777855408 | 20.56° C | 62% | 1001.3 hPa | 0 mm | - | 988 W/m² | - |
| 1777854817 | 20° C | 63% | 1001.1 hPa | 0 mm | - | 327 W/m² | - |
| 1777854206 | 19.44° C | 64% | 1001.1 hPa | 0 mm | - | 353 W/m² | - |
| 1777853615 | 19.44° C | 64% | 1001 hPa | 0 mm | - | 265 W/m² | - |
| 1777853009 | 19.44° C | 66% | 1001.2 hPa | 0 mm | - | 237 W/m² | - |
| 1777852417 | 19.44° C | 67% | 1000.8 hPa | 0 mm | - | 292 W/m² | - |
| 1777851806 | 19.44° C | 67% | 1000.8 hPa | 0 mm | - | 216 W/m² | - |
| 1777851220 | 18.89° C | 70% | 1000.8 hPa | 0 mm | - | 258 W/m² | - |
| 1777850608 | 18.89° C | 72% | 1000.9 hPa | 0 mm | - | 278 W/m² | - |
| 1777850017 | 18.89° C | 72% | 1001 hPa | 0 mm | - | 221 W/m² | - |
| 1777849407 | 18.33° C | 74% | 1000.8 hPa | 0 mm | - | 214 W/m² | - |
| 1777848820 | 18.33° C | 75% | 1000.7 hPa | 0 mm | - | 174 W/m² | - |
| 1777848209 | 18.33° C | 77% | 1000.6 hPa | 0 mm | - | 84 W/m² | - |
| 1777847619 | 18.33° C | 77% | 1000.4 hPa | 0 mm | - | 114 W/m² | - |
| 1777847008 | 17.22° C | 83% | 1000.3 hPa | 0 mm | - | 160 W/m² | - |
| 1777846421 | 16.11° C | 88% | 1000.4 hPa | 0 mm | - | 155 W/m² | - |
| 1777845811 | 15.56° C | 87% | 1000.2 hPa | 0.25 mm | - | 114 W/m² | - |
| 1777845219 | 15.56° C | 87% | 1000 hPa | 0.25 mm | - | 69 W/m² | - |
| 1777844612 | 15° C | 87% | 1000.3 hPa | 0.51 mm | - | 28 W/m² | - |
* Rain latest hour (hover to see other rain measurements)
** Current wind speed in m/s (hover to see current wind gust speed)